Sterling, IL

1:05 AM CST on November 17, 2019 (GMT -0600)
Whiteside County-Bittorf

Weather History for KSQI - October, 2019

Change the Weather History Date:

Wednesday, October 23, 2019

  Actual Average Record
Temperature  
Mean Temperature 48 °F -  
Max Temperature 61 °F 58 °F 75 °F (2012)
Min Temperature 35 °F 38 °F 28 °F (2005)
Degree Days  
Heating Degree Days 18    
Moisture  
Dew Point 38 °F    
Average Humidity 76    
Maximum Humidity 93    
Minimum Humidity 48    
Precipitation  
Precipitation 0.00 in - - ()
Sea Level Pressure  
Sea Level Pressure 29.54 in    
Wind  
Wind Speed 5 mph ()    
Max Wind Speed 12 mph    
Max Gust Speed 18 mph    
Visibility 10.0 miles    
Events Rain    
Averages and records for this station are not official NWS values.
T = Trace of Precipitation, MM = Missing Value Source: Averaged Metar Reports

Daily Weather History Graph

Daily Weather History Graph

Search for Another Location

Airport or City:

Astronomy

Oct. 23, 2019 Rise Set
Actual Time 7:19 AM CDT 6:05 PM CDT
Civil Twilight 6:51 AM CDT 6:33 PM CDT
Nautical Twilight 6:19 AM CDT 7:06 PM CDT
Astronomical Twilight 5:46 AM CDT 7:38 PM CDT
Moon 1:32 AM CDT (10/23) 4:01 PM CDT (10/23)
Length of Visible Light 11h 42m
Length of Day
10h 45m
Waning Crescent, 26% of the Moon is Illuminated
Oct 23
Waning Crescent
Oct 27
New
Nov 4
First Quarter
Nov 12
Full
Nov 19
Last Quarter

Hourly Weather History & Observations

Time (CDT) Temp. Windchill Dew Point Humidity Pressure Visibility Wind Dir Wind Speed Gust Speed Precip Events Conditions
12:56 AM 39.9 °F 35.8 °F 32.0 °F 73% 29.45 in 10.0 mi SSW 5.8 mph - N/A   Clear
1:56 AM 39.9 °F 34.5 °F 32.0 °F 73% 29.46 in 10.0 mi WSW 8.1 mph - N/A   Clear
2:56 AM 39.0 °F 33.4 °F 32.0 °F 76% 29.47 in 10.0 mi SW 8.1 mph - N/A   Clear
3:56 AM 37.9 °F 32.1 °F 32.0 °F 79% 29.48 in 10.0 mi WSW 8.1 mph - N/A   Clear
4:56 AM 36.0 °F 31.1 °F 32.0 °F 86% 29.50 in 10.0 mi SW 5.8 mph - N/A   Clear
5:56 AM 36.0 °F 33.3 °F 32.0 °F 86% 29.52 in 10.0 mi Variable 3.5 mph - N/A   Clear
6:56 AM 35.1 °F - 30.9 °F 85% 29.52 in 10.0 mi Calm Calm - N/A   Clear
7:56 AM 37.0 °F - 32.0 °F 82% 29.53 in 10.0 mi Calm Calm - N/A   Clear
8:56 AM 41.0 °F - 35.1 °F 79% 29.55 in 10.0 mi Calm Calm - N/A   Clear
9:56 AM 42.1 °F 40.2 °F 36.0 °F 79% 29.57 in 10.0 mi SW 3.5 mph - N/A Rain Light Rain
10:56 AM 44.1 °F - 37.9 °F 79% 29.57 in 10.0 mi Calm Calm - N/A Rain Light Rain
11:56 AM 46.0 °F 43.1 °F 39.9 °F 79% 29.55 in 10.0 mi SSE 5.8 mph - N/A   Mostly Cloudy
12:56 PM 52.0 °F - 42.1 °F 69% 29.54 in 10.0 mi Variable 4.6 mph - N/A   Scattered Clouds
1:56 PM 55.9 °F - 42.1 °F 60% 29.49 in 10.0 mi Calm Calm - N/A   Clear
2:56 PM 60.1 °F - 41.0 °F 49% 29.49 in 10.0 mi Variable 3.5 mph - N/A   Clear
3:56 PM 59.0 °F - 39.0 °F 48% 29.47 in 10.0 mi SSE 8.1 mph 16.1 mph N/A   Partly Cloudy
4:56 PM 57.0 °F - 39.9 °F 53% 29.46 in 10.0 mi SSE 4.6 mph - N/A   Scattered Clouds
6:56 PM 50.0 °F - 46.9 °F 89% 29.52 in 10.0 mi NNE 3.5 mph - N/A   Overcast
7:56 PM 52.0 °F - 46.0 °F 80% 29.53 in 10.0 mi North 3.5 mph - N/A Rain Light Rain
8:56 PM 48.9 °F - 44.1 °F 83% 29.57 in 10.0 mi North 11.5 mph 18.4 mph N/A Rain Light Rain
9:56 PM 46.9 °F - 42.1 °F 83% 29.59 in 10.0 mi NNE 10.4 mph - N/A   Overcast
10:56 PM 45.0 °F 39.3 °F 43.0 °F 93% 29.63 in 10.0 mi North 11.5 mph - N/A   Overcast
11:32 PM 42.8 °F 36.6 °F 39.2 °F 87% 30.04 in 10.0 mi North 11.5 mph 17.3 mph N/A   Overcast